Theta_e
306 306 308 307 310 314 317 316 314 318 315 316 319 316 310 314 320 317 324 337 337 340 343 343 345 347 349 351 352 351 348 350 349 347 352 348 344 346 343 345 344 336 336 335 336 339 342 344 346 347 346 345 343 341 340 339 337 335 332 330 329 328 329 330 329 327 328 328 330 331 331 331 331 332 331 329 331 335 337 337 338 337 335 332 326 326 331 334 336 338 337 337 336 336 336 335 335
306 308 308 309 313 315 319 318 317 320 317 314 318 318 314 317 321 320 324 338 341 342 344 343 345 346 347 349 350 351 346 346 345 343 347 345 346 347 344 347 342 335 336 335 337 338 340 343 345 347 346 345 343 342 342 340 338 336 333 330 329 328 328 330 330 330 328 327 328 329 331 332 333 332 330 330 333 337 339 340 339 339 337 335 327 327 334 335 336 337 336 336 336 336 336 335 334
307 309 310 312 314 316 323 321 319 319 314 311 317 322 318 316 322 322 321 337 344 343 343 341 345 343 345 353 351 352 347 344 345 344 345 346 347 346 346 346 340 336 335 335 336 336 339 341 343 346 346 346 344 343 343 341 339 337 334 331 330 329 328 330 331 331 330 330 329 329 330 331 333 333 332 333 335 337 340 340 340 339 339 337 331 330 333 334 336 337 335 335 335 335 335 334 333
308 311 312 314 316 319 329 326 326 323 314 317 324 328 323 321 330 330 329 341 342 340 342 345 348 339 347 359 349 350 348 345 346 346 346 347 347 347 347 343 338 336 335 335 335 335 338 340 342 345 346 346 345 344 344 342 340 337 336 333 330 329 328 329 331 332 332 331 332 333 331 331 333 335 335 335 336 337 339 340 339 339 339 338 334 331 331 333 336 336 335 335 335 336 335 334 333
309 312 311 315 320 321 326 323 326 321 313 322 328 328 325 327 336 337 337 340 338 337 341 345 347 339 346 350 345 351 348 347 348 345 347 346 347 347 346 341 337 336 335 335 334 334 336 338 340 343 346 347 346 344 344 343 341 338 338 335 331 330 329 329 332 333 332 333 334 335 335 333 333 335 336 336 337 337 339 339 339 339 338 336 334 332 331 334 336 334 335 335 335 335 334 333 331
311 313 313 315 317 318 322 321 323 323 318 321 325 321 321 328 332 335 336 335 337 339 340 344 347 347 351 346 344 350 345 346 349 346 346 347 348 347 345 340 336 336 335 335 334 334 335 337 339 343 345 346 346 344 344 344 343 339 338 337 333 330 330 330 332 334 333 334 334 335 335 334 334 335 335 336 337 337 337 337 337 338 337 336 334 333 332 333 335 335 335 335 336 335 334 333 331
310 314 318 318 318 318 325 327 326 330 324 318 322 320 318 326 331 332 334 337 340 340 343 344 344 352 353 345 344 345 343 346 347 347 347 348 348 347 345 339 336 336 335 336 335 335 336 336 338 342 343 345 346 345 344 344 344 341 338 338 334 331 331 331 332 334 334 334 334 335 335 334 335 336 336 336 336 335 335 334 335 335 336 335 332 331 332 332 334 335 335 335 335 335 335 334 333
311 317 320 322 323 320 324 326 324 327 322 316 319 320 318 321 329 332 332 336 338 340 346 343 342 354 350 347 351 346 344 346 345 347 347 348 347 346 344 339 337 337 338 337 336 336 335 335 337 341 342 343 345 345 345 344 344 342 340 339 336 332 332 333 332 334 334 334 335 335 336 335 336 338 337 337 337 335 334 333 333 333 333 334 332 330 330 330 332 334 334 335 335 335 334 333 334
311 315 318 322 322 320 324 321 318 320 320 319 317 319 324 321 324 331 333 332 333 340 348 343 342 348 349 352 354 345 345 346 346 348 347 347 346 345 342 339 337 339 340 338 336 335 334 334 336 340 341 341 342 344 345 344 344 343 341 340 339 334 333 334 332 334 335 334 335 335 335 335 336 339 338 338 337 335 333 332 332 332 332 333 333 329 328 329 330 332 334 335 335 334 332 332 333
313 315 318 323 320 318 322 319 318 319 319 320 316 316 322 319 319 327 333 332 333 343 345 345 348 347 350 352 349 345 346 346 347 348 347 346 345 343 341 339 337 339 341 338 335 334 334 335 337 339 340 341 341 343 344 343 344 343 342 340 340 337 334 334 333 334 335 335 335 336 335 334 335 338 338 337 336 334 333 332 332 332 331 332 333 329 327 329 330 330 332 333 333 332 331 332 332
319 316 319 325 322 318 319 320 323 325 321 320 317 315 316 316 316 319 327 332 335 344 344 347 353 349 347 348 347 345 345 346 347 347 346 345 344 343 341 339 338 339 341 338 335 334 335 337 338 340 340 341 342 342 343 343 343 343 343 341 341 338 334 334 334 334 335 335 336 336 335 334 335 337 338 336 335 334 333 333 332 331 330 331 333 331 327 327 328 329 329 331 331 331 331 331 331
318 317 324 327 323 320 320 322 324 326 323 319 320 321 318 315 314 314 319 328 335 344 345 346 348 346 349 350 347 345 345 346 346 346 346 346 344 343 341 340 340 340 340 336 334 335 337 338 339 340 340 340 342 343 343 343 343 343 344 342 341 340 335 334 335 335 335 335 336 336 335 334 335 336 337 336 335 334 333 333 332 330 329 329 331 332 329 327 327 327 327 329 330 330 330 329 327
319 319 324 321 320 322 318 319 321 323 325 322 321 321 317 314 315 315 317 328 336 343 344 342 342 345 350 349 344 345 346 346 345 346 346 346 345 343 342 340 340 340 340 336 333 335 338 338 338 339 339 339 341 343 344 344 344 344 344 343 342 340 337 336 336 335 336 336 335 336 336 335 335 336 336 336 335 334 334 332 331 330 327 327 328 331 331 329 327 325 325 325 325 326 327 325 321
319 320 322 315 317 321 316 317 318 318 321 322 319 315 314 316 317 316 321 331 338 341 338 338 340 344 349 346 345 346 345 345 345 346 345 345 344 343 342 341 340 340 340 335 332 336 338 339 338 338 337 337 340 342 343 343 344 344 343 343 342 342 338 337 337 336 336 336 335 336 336 336 335 337 336 336 336 335 334 332 330 329 326 325 326 328 330 331 329 327 325 323 321 320 319 318 317
313 320 324 317 314 316 314 316 316 314 317 319 316 313 316 320 322 322 326 334 338 334 335 339 336 338 347 348 347 345 344 346 345 345 345 345 344 343 342 341 340 340 339 335 333 336 338 339 338 337 336 336 339 341 343 343 344 344 343 343 343 342 339 339 338 336 337 336 336 337 336 336 336 337 337 337 336 335 334 333 331 330 326 324 324 326 327 330 331 329 327 324 320 318 317 315 318
313 320 321 314 314 313 314 315 313 314 317 318 314 314 321 323 325 327 327 332 336 332 336 340 329 330 343 346 344 342 343 346 345 345 345 345 345 343 343 342 341 340 338 335 334 336 336 337 336 335 335 336 337 341 343 343 344 342 342 343 343 342 340 340 339 337 337 337 337 337 336 336 337 338 337 336 336 335 335 333 332 330 327 325 324 325 325 327 330 331 329 325 321 320 319 318 320
312 319 318 313 315 314 316 317 313 314 317 317 313 313 323 325 324 327 327 331 335 332 332 333 329 333 342 342 340 342 343 345 344 344 344 344 344 343 343 342 342 340 339 337 335 335 334 334 333 333 335 335 336 339 342 342 342 342 342 343 342 341 340 340 340 339 338 338 338 337 337 336 336 338 337 337 335 335 334 333 332 330 327 325 324 324 324 324 326 330 330 327 324 322 321 320 322
311 318 317 314 317 316 319 321 316 314 314 315 312 312 321 326 326 327 328 330 330 333 332 333 337 338 339 340 340 342 343 343 343 343 342 341 341 342 342 341 341 340 339 339 336 335 334 333 333 332 334 334 333 336 340 341 341 342 341 342 342 340 340 340 339 339 339 338 337 337 337 335 335 336 336 336 334 333 332 331 332 332 330 327 325 323 323 322 322 325 329 329 325 324 322 322 323
314 317 314 317 321 317 319 320 317 314 312 314 313 312 322 326 325 326 330 331 330 337 337 337 343 341 339 340 340 342 341 341 341 340 340 339 339 340 340 341 341 340 340 340 338 336 335 334 334 333 333 333 332 333 336 338 339 341 341 341 341 340 340 340 339 339 338 338 337 337 336 334 334 335 335 334 332 331 330 330 331 331 331 329 326 325 322 322 322 321 326 329 327 324 324 323 323
314 314 313 319 319 317 318 316 314 314 312 313 311 314 324 322 320 326 331 331 332 338 340 344 347 342 342 340 338 339 339 339 339 338 337 337 338 338 339 339 339 340 340 340 339 338 337 335 335 334 334 333 332 333 334 335 337 340 341 341 340 340 339 339 339 338 339 338 336 337 336 334 334 334 335 334 332 332 331 331 332 331 331 330 328 327 323 321 322 321 323 328 328 324 324 323 322
311 311 315 319 314 313 316 314 314 314 311 311 311 316 320 316 320 329 331 332 333 334 335 342 346 341 341 341 337 336 336 334 334 334 334 334 336 336 337 338 338 339 339 340 340 339 338 337 336 336 335 334 333 333 333 332 336 339 340 340 340 340 340 339 339 338 338 337 336 337 336 334 334 334 335 334 331 331 332 331 332 332 331 331 330 328 325 321 321 321 321 326 327 324 324 324 322
310 311 314 316 311 311 312 313 314 314 312 311 313 315 316 318 326 329 330 335 335 331 329 333 339 340 340 340 337 334 333 332 329 329 330 330 332 334 336 337 338 338 339 340 339 339 339 338 338 337 336 336 333 332 332 333 336 338 338 338 337 337 339 339 339 338 338 337 337 337 336 335 335 334 335 333 331 331 331 331 331 331 331 332 331 329 325 322 322 322 320 323 325 325 324 323 321
311 312 314 314 311 311 312 312 313 313 312 312 314 314 317 326 331 326 326 329 327 326 329 333 336 336 337 337 335 335 334 331 328 326 327 328 329 332 334 336 338 338 339 340 339 340 339 339 339 338 337 336 335 333 332 333 336 336 335 335 334 335 336 338 338 338 337 338 337 337 336 335 335 334 334 332 331 331 331 331 331 331 331 332 331 329 324 322 323 323 320 322 324 324 323 322 321
309 311 313 312 310 311 312 311 311 311 311 312 313 311 318 331 330 323 324 325 323 325 331 336 335 333 335 335 334 334 332 329 326 325 327 328 330 330 332 335 338 339 339 339 340 339 340 341 340 339 339 338 337 336 334 333 335 336 335 334 334 334 335 335 337 337 336 337 336 337 336 334 335 334 333 332 332 332 332 332 332 331 331 331 330 327 324 323 324 324 321 322 324 323 322 321 323
310 310 312 311 311 312 312 312 310 310 311 312 313 312 317 324 325 324 325 326 324 326 332 335 334 333 334 334 333 332 330 326 322 322 323 324 325 324 326 334 338 339 339 339 340 340 341 340 339 339 338 338 337 337 338 336 335 335 334 334 334 334 335 334 334 335 335 336 335 336 335 335 335 333 332 332 332 333 333 333 333 332 331 330 329 325 323 324 323 323 322 322 322 321 321 323 325
312 310 312 312 312 312 311 312 310 310 312 312 312 314 316 315 319 323 323 324 324 326 331 333 333 334 333 332 331 330 330 326 319 318 319 318 319 318 322 331 338 339 339 339 340 340 340 338 338 337 336 337 337 336 338 338 337 336 334 334 334 333 334 334 333 332 333 335 335 335 335 334 334 333 332 333 334 334 334 334 333 332 332 329 328 325 323 324 323 322 321 320 321 321 323 325 325
313 311 312 311 311 310 310 312 312 311 312 313 312 317 317 312 316 322 321 323 324 326 330 330 332 333 330 330 329 327 327 323 318 318 317 316 316 317 320 327 335 338 338 339 339 338 338 337 336 335 336 337 336 335 337 338 338 337 336 336 335 334 334 334 334 333 332 334 335 335 335 334 335 334 334 335 335 336 335 335 333 333 332 328 327 326 324 324 324 323 320 318 321 322 324 325 326
311 311 312 313 314 312 310 310 312 312 311 313 314 314 312 310 315 319 320 323 324 325 329 330 331 331 329 329 327 324 323 320 318 317 317 315 315 316 318 323 330 335 337 338 337 337 337 336 334 334 335 335 333 333 333 335 337 337 337 336 336 336 335 334 334 334 335 334 334 334 335 335 335 335 335 335 335 335 335 335 333 333 334 330 326 327 326 323 323 324 323 321 322 323 325 325 325
311 311 311 314 319 315 311 311 311 311 312 313 313 312 314 315 313 315 320 324 323 324 327 329 329 329 328 327 326 324 321 317 317 317 317 316 316 316 318 321 325 329 332 333 334 334 334 332 332 333 333 331 329 329 329 330 333 335 335 335 336 335 335 334 333 334 335 335 335 335 335 335 335 335 334 334 334 334 334 333 333 333 334 332 328 327 329 326 323 323 324 324 323 324 324 325 327
311 311 311 315 319 315 311 313 313 311 312 312 310 314 322 325 313 313 322 325 324 324 325 326 327 327 327 326 325 324 321 317 317 317 317 316 315 317 319 320 321 323 325 327 328 327 328 328 329 329 329 327 326 326 326 326 327 329 328 329 330 330 332 333 333 333 333 333 334 334 334 334 334 332 332 332 332 333 332 332 332 332 333 333 329 328 331 331 328 326 327 328 326 325 326 328 330
313 310 314 316 312 314 315 315 316 312 312 312 309 313 321 324 313 313 322 325 325 326 324 323 325 325 326 326 324 324 321 318 317 317 317 316 315 316 318 320 320 320 321 321 322 322 322 325 327 327 327 326 325 324 324 323 324 324 323 323 324 323 325 328 331 332 329 328 328 329 331 331 331 331 331 331 331 331 331 331 332 333 333 333 332 329 330 332 332 330 330 331 330 330 330 330 331
316 310 317 320 312 314 316 314 317 311 311 314 311 314 318 316 312 312 321 326 325 326 325 323 324 325 326 326 323 323 322 317 316 317 317 316 315 316 317 319 319 319 319 319 319 319 319 322 325 326 326 325 324 323 323 322 323 323 323 323 322 321 321 323 327 328 326 324 324 324 326 328 327 328 328 328 330 331 330 331 332 331 332 333 333 331 330 332 333 331 330 331 331 330 330 331 331
324 316 315 316 312 314 315 312 313 312 312 312 310 314 317 315 312 312 319 325 326 326 325 323 324 325 325 325 323 323 323 320 318 317 316 316 315 316 316 317 318 318 318 318 318 318 317 320 325 326 325 324 323 323 322 322 322 322 322 323 323 322 321 321 323 325 326 325 325 324 325 325 324 324 325 326 327 329 329 330 330 330 332 333 331 330 330 331 332 332 331 331 330 329 329 329 330
327 328 322 316 314 314 316 314 313 314 313 311 313 314 312 314 313 312 316 321 326 327 326 324 323 323 324 324 322 322 322 323 321 317 316 317 315 316 316 317 317 318 318 317 317 317 317 320 324 324 325 325 323 322 322 321 319 319 320 323 323 320 319 321 323 326 327 326 325 324 325 326 325 326 327 326 326 327 327 327 327 327 330 332 330 329 329 330 332 332 332 332 330 330 329 328 329
317 326 325 319 318 314 316 318 316 317 316 313 314 313 314 317 314 313 315 317 325 327 324 323 322 321 324 324 322 321 321 321 320 317 316 316 316 316 316 317 317 317 317 317 317 317 317 319 321 321 323 325 322 321 319 319 318 319 321 321 320 319 319 321 323 325 326 324 323 322 323 324 325 326 326 326 325 325 325 326 324 323 325 329 330 329 329 330 330 331 332 332 331 331 331 330 330
315 324 324 319 320 317 318 320 317 316 315 313 314 314 317 316 314 313 314 315 321 323 321 320 321 322 324 325 323 321 321 321 317 316 317 316 316 316 316 317 317 317 317 317 317 317 317 318 319 319 321 323 321 318 317 318 319 320 320 320 319 320 321 321 323 325 324 323 322 322 321 321 322 323 323 323 324 325 325 326 325 323 324 326 327 328 329 329 329 329 330 331 330 330 331 331 331
321 327 327 320 318 318 319 319 320 317 312 314 319 319 318 320 322 321 317 316 317 319 321 322 324 324 325 325 324 322 320 319 316 316 317 317 316 316 316 316 317 317 317 317 317 317 317 318 318 319 320 320 317 316 317 317 318 319 318 318 319 321 322 322 323 324 323 322 321 321 320 319 319 319 320 319 321 323 323 325 325 325 325 325 325 326 327 328 328 328 329 329 330 330 330 331 331
321 323 321 319 319 320 318 317 324 321 311 316 323 320 321 325 332 328 320 316 316 319 321 323 325 325 325 324 324 323 320 318 318 318 316 316 317 315 316 316 316 317 316 317 317 317 317 317 317 318 317 316 315 315 316 316 316 316 316 317 318 320 322 322 323 322 321 321 321 320 318 318 317 317 318 318 319 321 322 324 325 325 325 325 324 324 325 326 327 327 327 327 327 328 329 328 329
324 321 318 321 322 320 321 322 328 324 314 320 324 318 326 334 334 331 323 320 321 320 319 321 323 324 324 323 324 324 321 319 322 321 317 316 316 316 316 316 316 316 316 316 316 316 316 316 316 316 315 314 314 314 315 316 316 314 313 315 316 318 320 320 319 318 318 319 320 318 318 318 317 317 318 317 318 320 322 323 324 323 323 323 322 322 323 325 325 326 326 327 326 326 326 326 327
327 323 318 323 321 318 323 326 329 325 315 318 321 318 329 339 339 334 322 320 326 322 318 319 320 322 323 321 322 324 323 320 321 321 319 316 316 316 316 316 316 316 316 315 315 315 314 315 316 315 315 314 313 314 315 315 315 314 313 314 315 315 316 316 314 313 314 317 317 318 319 317 316 317 317 318 318 320 321 322 322 322 321 321 321 321 321 322 322 322 323 325 326 326 326 327 327
329 328 320 323 325 320 321 324 329 330 321 320 320 320 333 339 336 334 323 318 323 319 316 318 317 318 319 319 320 321 322 320 319 320 320 318 316 316 316 316 316 316 315 315 315 314 312 312 315 316 314 314 313 314 314 314 316 315 314 315 315 314 315 316 314 312 313 316 317 318 317 313 313 316 317 318 319 320 321 321 321 321 321 321 320 321 320 320 320 320 320 321 323 325 327 327 326
330 333 327 327 330 323 321 325 330 332 327 322 315 317 339 342 331 331 328 324 324 317 316 320 320 317 317 319 321 321 322 320 319 318 318 318 316 316 316 315 316 315 315 315 314 314 310 309 313 315 314 313 313 314 314 315 316 316 314 314 314 313 314 315 312 310 312 314 316 317 313 310 313 316 317 318 318 319 319 319 319 319 320 320 319 319 319 319 319 319 318 319 320 322 324 324 324
324 329 330 329 330 325 323 324 324 326 323 319 317 319 332 337 332 331 327 326 327 321 320 323 320 318 318 318 319 320 321 320 319 318 318 317 316 315 316 315 316 315 315 315 315 313 308 307 310 313 314 313 314 315 316 315 316 316 314 312 312 311 310 310 309 309 311 313 316 316 312 311 314 314 315 317 317 317 318 317 317 318 318 318 318 319 318 318 318 317 317 318 318 319 321 321 321
325 326 327 328 328 326 328 325 323 326 321 319 327 325 319 326 334 330 322 321 326 324 326 327 319 316 318 318 317 317 319 319 319 318 318 318 316 315 316 316 316 315 315 315 315 313 308 306 308 311 313 314 314 316 317 316 315 316 314 311 311 310 309 309 308 310 311 312 315 316 312 311 313 313 313 314 315 316 315 314 314 315 315 316 316 315 315 315 315 315 315 315 315 316 317 317 318
327 324 325 327 326 326 330 327 324 324 318 320 332 322 314 329 335 328 320 318 322 325 325 326 319 314 315 315 315 315 316 318 318 318 318 317 316 316 316 316 316 315 315 315 315 313 308 306 308 310 314 315 315 316 317 317 315 314 313 312 311 311 310 310 308 309 309 310 313 315 312 311 313 313 312 312 312 312 310 308 308 308 309 310 310 310 310 310 310 311 311 310 311 311 312 313 314
320 319 321 322 322 324 327 327 324 320 316 323 333 321 314 328 335 326 318 315 321 326 322 321 317 314 313 312 311 311 312 315 317 317 317 316 315 317 316 316 316 315 315 315 315 313 309 307 309 311 314 315 316 316 317 317 315 312 312 312 311 311 311 311 309 308 309 309 311 312 311 310 312 312 312 311 309 309 308 307 306 306 307 307 307 307 307 307 307 308 308 308 308 307 307 308 310
314 321 322 318 322 325 326 329 324 315 318 326 329 323 314 320 333 329 318 315 318 320 319 318 315 314 313 312 312 312 310 312 316 317 317 315 314 316 316 316 315 315 315 315 315 313 309 308 310 312 313 315 316 316 317 317 315 313 312 312 311 311 312 312 310 309 309 309 308 308 308 309 310 310 310 310 310 309 309 309 309 308 309 308 308 309 308 307 307 307 307 307 306 307 307 306 307
317 325 326 318 321 323 322 327 321 314 324 327 322 320 314 316 328 325 318 317 315 315 316 316 314 314 313 311 313 313 310 312 315 317 317 317 318 316 315 316 315 315 315 315 315 314 311 309 310 313 313 315 316 316 317 318 317 315 313 312 312 311 311 312 312 311 310 308 307 306 307 308 309 309 309 309 309 310 310 311 312 311 311 310 309 310 308 307 307 307 307 307 307 306 306 306 306
320 322 324 318 318 319 320 323 320 319 325 319 315 318 314 318 325 320 316 316 313 313 314 313 313 313 312 311 313 314 313 312 315 318 318 321 322 317 314 315 315 315 315 315 315 314 312 311 311 312 313 314 315 316 317 318 317 316 315 313 311 311 311 311 312 313 312 310 307 306 306 306 308 308 308 308 308 309 311 312 313 313 313 311 310 310 307 306 306 307 307 307 307 307 306 306 306
316 318 322 320 318 319 321 321 316 318 321 315 315 317 316 321 321 316 315 314 314 314 313 313 315 313 310 308 310 314 315 315 316 318 320 323 322 316 314 315 314 314 315 314 315 315 313 312 311 312 313 313 315 315 316 318 318 316 315 314 312 311 311 311 312 313 313 312 310 308 307 306 307 307 307 308 309 310 311 312 313 314 314 312 311 309 307 305 305 306 307 307 307 307 307 306 306
313 316 318 319 322 320 320 321 317 316 318 314 312 314 322 324 315 313 316 315 315 316 313 312 313 311 309 306 307 310 313 316 319 319 320 322 319 314 315 315 314 315 315 314 314 314 314 313 312 312 312 313 315 314 315 318 318 316 314 313 312 311 311 311 312 313 314 314 312 310 309 308 307 306 307 308 310 311 311 313 313 314 314 312 311 308 306 305 305 305 306 306 306 307 306 306 305
311 312 313 315 322 323 318 316 316 317 317 316 314 316 325 322 312 315 321 318 315 315 312 309 308 308 307 307 307 308 308 311 317 320 321 319 315 314 316 315 315 315 315 314 314 314 314 314 313 313 313 312 313 313 314 317 318 316 314 313 312 312 311 311 313 313 314 314 314 312 311 311 309 307 307 308 310 311 312 313 314 314 313 311 310 307 306 306 306 306 306 305 306 306 305 305 305
313 310 313 315 316 323 320 311 313 316 315 318 317 316 320 318 315 317 318 316 314 314 312 308 307 307 306 308 308 308 308 308 311 315 319 319 316 315 316 316 316 316 315 315 315 314 315 315 315 315 314 314 313 313 313 315 317 317 314 313 313 313 313 312 313 313 314 314 315 314 313 312 311 310 309 308 309 311 313 313 314 313 312 310 308 306 306 306 306 306 306 305 305 305 305 305 305
314 312 316 314 311 322 324 315 318 318 316 321 319 315 316 319 320 317 313 312 312 312 310 308 308 307 307 308 307 307 308 307 308 310 312 314 313 314 317 317 317 317 317 317 315 315 315 315 316 316 316 315 314 314 313 314 316 316 315 315 314 315 315 314 313 313 313 314 314 314 313 313 313 312 311 310 310 311 313 313 313 312 311 309 307 306 306 307 306 306 306 305 305 305 305 305 305
313 313 313 313 318 325 321 318 322 317 315 323 322 315 314 318 320 317 313 313 311 309 310 308 309 308 308 309 307 307 308 308 309 308 309 311 309 312 315 316 318 318 318 318 317 316 316 315 316 316 317 317 316 315 314 314 316 315 316 316 316 317 316 315 314 313 314 314 314 314 314 313 313 313 312 311 311 312 312 313 312 311 309 308 306 306 307 307 307 306 306 305 305 305 305 305 304
314 316 313 316 325 325 318 316 319 318 316 322 321 314 315 320 320 317 315 315 312 309 310 310 309 309 309 308 308 309 309 309 309 308 309 310 309 311 314 315 317 318 318 319 319 318 317 316 317 317 317 318 317 317 317 316 317 316 317 317 317 318 317 317 316 315 314 314 314 314 314 313 314 313 313 312 312 312 312 312 312 310 308 306 306 307 307 307 307 306 306 305 305 305 304 304 304
316 318 315 316 315 314 314 312 312 316 319 322 319 315 321 323 317 315 315 317 316 312 310 309 309 309 309 308 308 309 309 310 310 309 310 310 307 309 313 315 316 317 317 318 319 319 319 318 318 318 318 318 318 318 318 318 318 318 317 317 318 318 318 318 317 316 316 315 315 314 314 314 314 314 314 313 312 312 312 312 312 309 307 306 306 307 307 307 307 306 306 305 305 304 304 304 304
318 318 315 317 316 314 314 313 314 315 314 318 317 316 324 322 314 316 317 317 318 313 310 309 308 309 309 309 308 308 309 310 309 309 310 308 305 306 308 311 313 315 316 317 318 318 319 320 319 319 319 319 319 319 319 319 319 318 318 318 318 319 319 319 318 317 318 317 316 315 315 315 315 314 314 313 313 312 312 312 311 309 307 306 306 307 307 307 306 306 305 305 304 304 304 304 303
Wind_Speed
6 6 6 6 6 4 2 2 1 2 2 0 3 1 3 4 2 3 3 1 1 1 2 2 5 6 5 6 7 5 3 4 4 4 4 3 7 23 22 13 17 22 22 18 16 16 16 16 16 18 19 18 17 17 17 17 18 19 19 18 18 18 18 19 19 19 20 21 21 21 20 20 19 19 19 18 17 16 15 15 15 15 15 14 12 12 13 13 15 15 15 15 15 14 13 13 14
5 6 5 3 3 0 2 3 2 3 3 1 4 3 4 4 1 4 4 2 3 3 3 4 7 6 5 7 6 4 4 3 1 2 0 4 13 20 18 13 18 22 21 18 16 16 16 16 16 18 19 18 17 17 17 16 18 18 19 18 18 18 18 18 18 18 18 19 19 19 19 18 18 18 18 17 17 16 15 14 14 14 15 14 13 13 13 13 15 15 15 15 15 15 14 13 14
5 5 3 1 1 2 1 3 2 0 4 1 4 4 3 3 4 7 6 3 5 6 5 4 6 4 4 6 4 3 2 3 2 2 2 8 11 14 14 14 20 22 20 18 16 16 16 15 15 17 18 18 18 17 17 16 17 18 18 18 18 17 17 17 17 17 17 17 17 18 18 18 17 17 17 16 16 16 15 14 13 14 14 14 13 13 14 15 15 15 15 15 16 16 14 14 14
6 4 2 2 1 3 3 3 2 4 3 3 3 4 3 2 6 5 5 4 4 2 2 4 4 2 2 6 2 3 2 1 2 2 3 4 9 15 15 17 22 21 19 17 16 16 15 15 16 16 17 18 18 17 17 15 16 17 18 17 17 17 17 16 16 17 17 16 16 16 17 18 17 17 16 15 15 15 14 14 13 12 13 14 13 12 14 15 15 15 15 16 17 16 15 15 14
5 3 1 2 2 1 2 2 2 4 3 4 1 4 3 1 3 2 4 2 2 3 2 4 3 1 2 4 2 3 1 1 1 2 4 5 15 19 16 20 22 20 18 16 15 15 15 15 16 16 17 18 18 17 17 16 15 17 18 17 17 16 16 16 16 16 16 16 16 16 16 16 16 16 16 15 14 14 14 14 13 12 12 14 13 12 13 15 15 15 16 17 17 16 16 16 16
4 1 3 3 2 1 2 1 2 2 5 4 3 3 4 3 2 3 2 2 4 3 4 2 3 3 3 2 1 3 1 1 2 3 5 10 19 18 17 21 21 19 18 16 15 15 15 15 16 17 17 18 18 18 17 16 15 16 17 17 16 16 16 16 16 15 15 15 15 15 15 14 15 15 16 16 15 15 15 13 13 12 12 14 14 13 13 14 15 16 17 17 17 17 17 17 18
3 1 3 4 1 1 3 2 4 3 4 5 3 3 3 3 2 2 4 3 4 5 4 2 3 6 3 1 2 4 4 1 3 5 9 15 19 17 18 21 20 20 17 16 14 14 15 14 16 17 16 17 17 18 17 17 16 15 16 17 16 16 15 15 15 15 15 14 13 14 14 14 14 14 15 16 15 15 15 13 12 12 12 14 14 14 14 14 16 18 17 16 17 17 16 17 18
2 1 1 4 1 2 3 1 2 4 3 3 3 4 4 5 1 0 3 2 2 4 3 2 2 6 1 2 2 4 7 3 4 9 15 18 19 18 19 20 20 19 16 15 14 14 14 15 16 16 16 16 16 17 17 17 16 15 16 16 16 16 15 14 14 14 14 14 13 13 13 13 13 14 15 15 15 15 15 13 13 12 13 14 14 13 14 15 16 18 17 16 16 16 16 17 18
3 2 0 3 1 1 1 2 2 3 4 4 4 5 6 5 4 2 2 2 1 1 1 1 5 4 3 4 2 3 6 6 9 14 18 19 19 20 20 20 20 18 16 15 15 14 14 15 16 16 15 15 15 15 16 16 16 16 16 16 17 16 15 14 14 13 13 13 13 13 13 12 12 13 14 14 14 14 14 12 12 12 13 14 14 13 14 16 17 18 16 15 15 16 18 18 16
3 2 2 2 2 1 4 2 2 2 5 5 4 7 7 6 4 4 5 4 2 4 1 2 6 4 5 4 1 3 3 9 15 16 17 19 18 20 20 19 19 19 17 15 15 14 15 15 15 15 15 15 14 14 14 15 15 15 16 16 17 17 16 14 14 13 13 13 12 13 13 12 11 12 13 13 13 13 12 11 11 11 12 14 15 14 14 16 17 17 17 15 16 17 18 16 13
3 3 3 3 3 1 4 3 3 3 5 6 5 7 8 6 4 4 5 3 3 6 1 3 4 4 5 3 1 0 6 11 15 16 16 18 17 19 19 18 18 17 17 16 16 15 16 15 14 14 14 14 14 14 14 14 15 15 15 16 17 17 16 15 14 13 13 12 12 12 13 13 12 11 12 12 13 12 12 12 11 11 10 12 15 15 15 16 17 18 18 17 16 17 15 14 11
2 2 4 3 2 3 3 2 4 5 6 5 5 6 4 5 4 6 7 4 5 7 3 2 4 3 5 1 1 3 9 10 12 15 15 17 16 18 18 17 16 16 18 17 16 16 16 14 13 12 12 13 13 13 14 14 15 15 15 15 17 17 16 15 14 13 13 12 11 12 12 13 13 12 11 11 12 12 12 12 12 11 10 11 13 15 15 15 17 18 18 17 16 15 14 12 10
3 2 5 2 3 2 2 1 4 4 5 3 5 5 2 5 6 9 8 7 8 8 5 5 6 3 3 1 1 4 8 9 13 15 16 17 16 17 17 17 16 15 16 17 16 16 16 14 13 11 11 11 11 11 12 14 15 14 15 15 16 17 16 15 14 13 13 12 11 11 12 13 13 12 11 11 11 11 11 11 11 11 10 10 11 13 14 14 15 16 17 17 16 14 14 12 9
3 3 4 2 1 2 2 1 2 1 4 5 4 5 1 3 6 7 7 8 8 7 4 6 8 4 1 2 2 3 7 11 15 16 17 18 17 17 17 17 16 15 16 16 16 17 15 13 12 11 11 10 10 11 11 12 13 14 14 15 16 16 16 15 14 13 12 12 11 11 12 12 12 12 11 11 11 11 10 10 11 10 10 9 9 11 13 13 13 14 15 15 15 14 13 12 10
2 2 4 2 1 1 2 2 2 2 4 5 3 5 4 4 3 6 8 9 6 4 5 7 5 1 3 6 4 5 10 15 16 16 18 18 18 17 16 15 15 15 16 16 16 17 15 13 12 11 10 10 10 11 11 11 12 13 13 14 16 16 16 15 14 13 11 11 12 12 12 12 11 11 11 11 10 10 9 10 10 10 9 8 8 9 11 13 13 12 12 13 14 13 13 13 11
2 3 4 2 1 1 2 3 2 1 5 5 3 6 4 5 0 5 5 5 7 3 4 5 2 0 4 6 5 11 16 18 18 18 19 18 18 17 16 15 14 13 15 17 17 17 15 13 12 10 9 9 10 11 12 12 12 11 12 13 15 15 15 14 14 12 11 12 12 12 12 11 11 11 11 10 10 9 9 9 10 9 9 8 8 8 10 12 13 12 11 11 12 12 12 13 12
3 4 4 1 1 2 3 3 3 2 6 6 5 6 2 4 4 2 2 7 9 6 4 2 1 1 3 3 10 20 20 19 20 20 19 18 18 17 17 17 15 13 14 17 17 17 16 14 12 10 10 10 9 10 12 12 11 11 12 12 13 14 15 15 14 13 12 13 12 13 12 11 11 11 11 10 10 9 9 9 10 10 9 8 8 8 8 10 12 12 11 10 11 11 11 13 12
3 3 3 1 3 3 5 6 5 3 4 7 7 6 2 1 2 1 6 8 6 6 5 3 5 6 7 11 20 24 21 21 21 19 17 15 15 14 15 16 17 17 17 18 17 16 15 14 13 11 11 11 10 10 12 12 11 11 12 12 13 13 13 14 14 14 13 13 13 13 13 11 11 11 11 11 10 10 9 9 10 10 9 9 8 8 8 9 10 12 12 11 10 10 10 12 12
3 3 2 3 5 4 5 5 4 3 5 8 8 5 3 3 1 1 4 5 5 7 4 4 7 7 9 14 21 22 20 20 19 18 15 12 12 12 12 13 16 17 18 18 17 16 14 13 12 12 11 11 10 10 11 11 11 11 11 12 13 13 13 13 14 14 14 13 13 14 13 11 10 10 11 11 10 10 10 10 10 10 10 9 9 9 8 9 9 10 12 12 11 10 9 10 11
2 3 1 5 6 4 5 6 6 5 6 8 8 5 2 3 0 2 5 6 4 6 4 4 6 6 8 9 14 19 18 18 17 17 15 13 12 12 13 13 14 16 17 18 17 15 13 12 12 11 11 11 10 9 9 10 10 11 11 11 11 12 13 13 13 14 13 13 13 13 12 10 10 10 10 11 10 11 11 11 10 10 10 10 10 10 10 10 10 11 12 13 12 11 9 8 9
1 3 4 6 4 3 7 7 8 7 5 6 7 4 3 2 2 3 8 8 1 4 7 6 10 12 12 9 10 15 15 14 15 15 15 14 13 14 14 14 15 16 17 16 15 14 13 12 11 11 11 10 10 9 9 8 9 11 11 10 10 11 12 12 13 14 14 13 12 12 11 10 10 10 10 11 11 11 11 11 11 11 11 11 12 11 11 11 12 13 13 13 13 12 10 7 7
1 3 6 6 3 3 8 4 6 6 2 3 5 1 3 1 3 6 8 8 3 5 6 6 12 16 15 13 12 12 11 11 11 12 14 15 16 16 15 16 16 16 16 15 15 14 13 12 11 11 10 9 9 9 8 8 9 11 11 11 11 11 12 13 13 14 14 14 13 13 12 11 11 11 11 11 11 12 11 11 12 12 13 13 13 11 11 12 14 14 14 14 13 13 11 7 6
2 4 4 5 4 5 7 2 5 4 4 5 3 2 1 5 4 4 4 4 4 4 3 6 9 14 17 16 13 12 11 10 10 12 15 17 17 17 17 16 17 16 16 15 15 14 13 12 11 10 10 10 9 8 8 9 10 11 11 11 11 11 11 12 13 14 14 14 14 14 13 12 12 12 12 11 12 12 12 13 13 13 13 14 13 11 11 12 13 15 15 15 14 12 10 7 6
3 4 5 5 5 7 7 4 5 4 6 8 2 3 1 7 5 3 3 4 5 3 6 8 6 9 13 13 11 11 11 10 10 13 16 18 18 18 17 17 17 18 17 16 16 15 14 12 11 11 10 9 8 8 9 9 10 11 10 10 11 11 11 11 12 13 14 14 13 13 13 13 13 12 12 12 13 12 13 14 14 14 14 14 12 11 11 11 12 14 15 15 13 12 10 8 6
3 5 5 4 3 7 8 7 6 4 7 7 1 3 4 6 4 5 4 6 3 4 9 9 9 9 9 10 10 10 9 9 11 12 14 16 17 17 16 18 19 19 19 19 17 16 15 13 12 11 10 9 8 8 8 9 10 11 11 10 11 11 11 11 11 12 13 13 13 12 13 13 13 14 14 13 13 13 14 15 15 14 14 14 13 11 11 10 11 14 15 14 12 10 9 8 6
5 5 4 4 6 7 7 8 5 4 5 4 3 4 3 2 1 4 3 2 3 8 10 9 10 10 8 8 8 9 8 8 10 12 14 16 18 18 18 20 21 21 21 20 19 17 16 14 13 12 11 10 9 8 8 9 10 11 11 11 11 10 10 10 10 11 12 12 12 13 13 14 14 14 15 15 15 15 16 18 17 16 15 14 14 12 11 10 10 11 12 13 12 10 9 7 6
5 4 5 7 9 7 4 6 3 4 4 5 6 3 1 2 1 3 4 2 7 10 10 9 11 10 9 8 6 7 7 9 12 14 14 15 18 20 21 21 22 23 22 21 20 18 17 15 14 12 11 10 10 9 9 9 10 10 10 11 11 10 10 11 11 10 10 10 11 12 13 14 15 14 15 15 17 18 19 19 17 16 17 15 14 13 10 9 10 10 9 11 11 10 8 7 6
3 2 6 8 7 5 3 4 4 1 2 5 8 2 2 3 1 4 5 4 8 11 11 9 11 9 8 7 6 6 6 10 14 15 15 16 19 22 23 23 25 24 23 22 21 19 18 17 15 14 13 12 11 10 9 9 9 9 9 10 10 10 11 11 11 10 9 10 11 12 14 15 15 15 16 16 18 18 18 17 14 14 16 16 15 13 11 10 10 10 9 10 10 9 9 8 8
2 2 4 9 7 5 4 4 4 0 1 2 6 1 4 2 2 5 3 6 7 10 10 9 9 7 6 7 6 5 6 10 12 14 18 19 21 24 25 25 26 25 23 22 21 20 19 18 17 15 15 13 12 11 10 9 8 8 7 8 7 7 8 9 11 12 12 12 13 14 15 16 16 16 16 16 18 18 16 14 12 13 13 16 16 13 11 11 11 11 11 10 10 10 10 9 9
3 3 2 6 7 6 6 4 3 0 1 2 2 2 5 6 6 5 3 8 9 9 8 7 7 6 6 6 5 5 6 8 11 15 19 20 21 24 26 26 25 25 23 22 22 20 19 18 17 16 15 14 13 12 11 10 9 8 6 5 4 4 6 8 9 9 9 10 12 14 14 14 14 14 12 13 16 15 13 12 12 13 13 14 16 14 13 13 12 12 10 10 10 10 11 10 10
3 2 2 3 2 4 8 4 4 2 0 5 5 2 6 7 8 5 5 8 11 10 7 7 6 6 6 6 6 6 6 7 11 16 19 20 22 23 26 27 25 24 24 23 21 20 19 18 17 16 16 15 15 14 12 11 11 10 8 6 4 3 4 6 6 5 3 4 7 9 11 11 9 7 6 8 11 10 9 11 13 13 13 13 14 15 14 14 14 11 10 9 8 9 10 10 10
3 2 2 4 2 4 8 4 4 2 3 6 7 1 6 6 7 6 6 7 11 10 9 9 8 8 7 6 6 6 5 7 12 16 18 20 23 24 27 28 26 25 24 22 21 19 18 17 17 17 17 17 16 14 13 12 12 11 8 6 5 5 5 4 4 3 2 1 1 2 6 10 10 7 6 8 7 6 8 10 11 9 9 11 14 19 19 17 14 12 13 12 10 10 9 9 8
4 3 0 3 3 3 5 4 6 3 3 4 4 2 5 4 6 5 4 6 9 9 9 9 8 9 9 7 6 6 5 6 9 14 18 20 23 25 27 28 27 25 23 22 21 20 18 18 18 18 18 17 16 15 14 12 11 9 8 7 6 6 5 6 6 5 3 2 2 4 1 3 6 7 6 6 5 4 7 6 6 6 6 8 10 13 15 14 13 13 15 14 14 14 13 11 9
4 3 3 2 1 2 2 4 5 6 3 3 1 2 6 5 6 5 3 2 7 8 9 9 8 8 7 6 5 6 7 7 9 14 19 22 24 25 26 27 27 25 23 22 21 20 19 19 18 18 18 18 16 15 14 12 10 8 8 8 6 5 5 6 7 6 4 3 3 5 4 3 1 1 1 2 1 4 7 4 2 2 5 7 5 4 6 10 14 15 14 14 14 13 14 14 12
1 1 2 2 1 0 2 3 2 6 4 3 3 4 7 7 6 4 4 1 6 8 7 6 6 6 5 5 5 5 7 9 10 13 19 22 24 24 24 25 25 25 24 22 21 20 19 19 19 18 19 19 18 16 14 12 10 9 10 8 6 5 5 7 7 5 4 2 2 3 3 4 2 1 2 2 1 2 4 4 2 3 4 4 4 5 5 7 10 12 14 15 14 11 11 12 12
4 3 4 2 1 2 5 4 4 3 2 1 2 5 6 6 4 2 4 3 5 4 2 4 4 5 5 4 5 6 8 9 7 8 16 21 23 23 22 23 24 24 24 23 22 21 20 21 21 20 20 20 19 17 15 13 12 12 11 9 7 7 7 8 7 5 3 2 0 1 1 2 1 0 1 1 2 2 5 7 4 2 2 0 3 3 3 3 3 7 12 14 14 13 11 11 11
4 4 4 3 2 2 5 4 5 2 2 1 2 4 6 6 5 5 4 3 4 5 4 4 4 5 5 6 6 7 7 6 4 7 15 20 20 20 20 21 22 23 24 25 24 22 22 22 22 22 22 21 20 19 16 15 14 13 12 10 9 9 8 8 7 6 4 2 1 1 1 2 1 1 1 1 1 3 5 8 7 6 7 7 6 5 3 2 0 4 7 8 9 11 10 10 10
3 5 4 1 2 2 4 3 4 3 1 3 2 2 6 6 5 5 1 4 7 9 7 6 7 6 5 6 8 7 6 4 4 7 12 17 17 17 20 20 23 25 26 26 25 24 23 22 23 23 23 21 19 19 18 16 14 13 12 11 10 9 9 7 7 6 4 3 2 1 2 3 2 2 1 1 2 3 6 8 9 10 12 13 12 11 8 4 3 2 2 2 2 4 3 3 5
3 3 3 1 2 3 5 3 5 5 1 4 4 4 6 7 5 5 3 4 7 8 9 10 9 9 8 8 8 7 7 6 6 6 10 17 18 17 19 21 24 26 27 27 26 25 24 23 24 24 23 22 20 20 18 16 15 12 11 10 10 10 9 7 6 5 4 4 3 2 2 2 2 3 3 3 3 4 6 8 10 11 12 13 13 13 11 9 8 8 8 8 6 6 6 3 2
3 3 2 2 2 1 3 4 6 4 1 1 2 4 5 6 6 4 3 4 5 5 7 8 7 10 11 10 10 10 11 10 9 8 9 13 16 18 21 23 24 24 25 27 26 26 25 25 25 25 24 22 21 21 19 18 16 14 11 11 10 9 9 8 6 5 5 4 3 2 0 1 2 1 3 4 4 5 6 7 8 8 10 10 10 11 11 10 10 11 12 10 8 10 10 8 6
2 3 4 3 2 3 4 4 5 4 3 3 4 4 5 4 5 5 2 1 2 4 3 6 6 7 6 5 7 11 12 12 12 11 10 12 16 21 23 24 25 24 26 29 29 28 26 27 27 26 25 24 23 23 21 19 18 16 14 14 11 10 10 9 7 6 6 5 4 2 0 2 1 2 3 4 4 5 6 7 7 6 7 7 7 8 9 9 9 11 13 11 10 10 10 9 9
4 3 7 7 5 4 3 2 5 5 4 4 4 2 5 5 4 5 4 4 4 3 2 6 7 5 4 5 7 9 10 10 11 12 11 13 17 19 20 23 25 26 28 30 30 28 26 27 28 27 26 26 25 24 22 21 19 18 18 18 15 13 13 12 10 9 7 5 4 3 1 3 4 4 4 4 4 4 5 5 6 5 5 5 6 7 7 8 8 9 10 10 11 10 9 10 10
2 4 7 7 6 5 3 2 3 2 2 3 3 2 4 6 4 5 4 6 7 5 4 5 5 4 5 7 8 8 9 10 10 11 11 12 15 17 20 26 29 29 28 29 30 29 28 28 29 29 29 28 27 25 23 21 20 20 20 19 17 15 15 14 11 10 7 6 5 4 3 5 6 5 4 4 3 2 2 3 4 4 4 4 5 5 7 8 8 10 9 9 9 9 8 10 10
2 4 6 8 6 5 5 5 4 2 3 3 4 3 2 4 5 5 4 5 8 7 7 6 2 3 6 7 9 9 11 12 11 12 12 12 15 19 24 29 31 29 28 29 31 31 30 30 30 30 31 30 28 26 24 22 22 23 22 20 18 15 14 13 12 11 9 7 6 5 5 5 6 5 5 4 4 3 2 3 4 5 6 6 5 6 8 8 8 9 10 10 9 8 8 9 9
5 4 7 7 5 5 5 6 3 1 1 3 5 2 1 4 6 5 5 4 7 7 8 8 6 5 5 7 9 11 12 14 13 14 13 13 17 25 28 28 27 27 28 31 33 32 31 31 31 31 32 32 30 28 25 23 22 23 23 22 19 15 12 11 12 12 10 9 7 6 6 6 6 5 5 6 6 7 6 7 7 8 9 9 8 9 9 9 9 9 10 11 10 9 9 7 7
4 6 7 5 6 5 4 5 3 3 2 4 6 1 2 4 5 5 3 2 5 6 6 6 6 8 9 8 8 9 11 12 13 14 13 15 21 26 24 21 22 25 27 29 31 32 32 33 33 33 33 32 31 29 27 24 23 24 24 23 20 16 14 13 13 12 11 10 9 8 7 7 7 6 6 6 7 7 7 7 7 9 9 10 9 9 9 10 10 10 10 11 10 10 9 8 8
3 5 6 6 6 5 4 3 4 4 1 6 6 2 2 3 5 4 3 2 3 5 5 5 6 8 9 10 9 7 8 9 10 11 10 12 16 18 18 18 21 23 25 27 30 32 34 34 34 35 34 33 32 30 28 26 25 25 25 24 21 18 16 16 15 14 13 12 11 10 9 9 9 8 7 6 6 5 5 4 5 6 7 8 9 9 10 11 10 10 10 11 11 11 11 9 8
4 4 5 4 3 4 4 4 3 3 3 6 5 1 4 2 5 3 4 5 5 5 5 5 7 8 9 8 7 6 5 6 7 7 6 6 8 12 17 19 21 23 25 28 32 34 35 34 34 34 34 34 33 31 30 27 27 26 26 25 23 19 18 18 18 17 15 15 14 12 12 11 10 10 9 7 6 5 4 3 3 4 5 7 8 9 10 10 10 10 10 11 12 12 12 11 10
5 4 5 3 2 3 2 3 0 2 5 4 3 1 3 4 6 4 5 7 6 4 3 4 6 6 8 6 5 5 3 2 4 4 5 6 6 9 14 18 22 26 29 31 33 35 35 34 34 35 35 35 34 32 31 29 28 28 28 27 25 21 19 19 18 17 16 15 14 14 13 13 11 11 10 9 7 5 4 3 1 1 3 4 6 8 9 10 10 10 11 11 11 12 12 12 12
3 4 4 3 2 2 2 3 1 3 4 2 2 1 1 3 4 3 4 6 6 3 3 4 6 6 7 7 5 6 5 3 2 4 5 5 6 8 12 16 20 24 27 31 33 34 35 33 33 35 35 36 35 33 32 30 29 29 29 28 26 23 21 20 19 18 17 16 15 15 14 13 12 10 9 8 8 6 4 3 2 1 1 2 4 6 8 8 9 10 11 10 10 10 10 11 11
2 4 5 4 4 3 3 4 2 3 2 2 2 1 2 2 2 4 4 5 5 5 5 6 5 6 6 6 7 8 7 6 2 2 4 4 7 10 13 15 17 18 20 23 27 30 33 34 35 35 36 37 37 35 34 32 31 30 29 29 28 25 22 21 20 19 18 17 16 15 15 13 12 10 8 8 8 7 6 4 4 3 1 0 3 5 6 7 9 10 10 10 9 8 9 10 10
1 3 5 2 4 4 1 3 4 3 1 1 1 2 3 3 2 4 3 5 5 5 6 5 3 4 4 7 8 8 7 6 4 2 0 3 6 11 14 16 18 17 17 20 22 24 27 29 30 32 34 36 37 36 36 34 33 31 31 30 29 26 24 23 22 21 20 19 17 17 16 14 12 11 10 9 9 9 8 7 6 5 3 1 2 3 4 6 8 9 8 8 7 7 8 8 9
1 2 3 3 4 7 4 1 1 3 1 3 1 2 3 1 1 3 5 5 6 5 5 4 4 5 7 8 7 7 7 7 6 5 3 0 4 8 11 14 17 17 17 19 21 21 24 25 25 27 29 31 34 36 36 35 34 33 32 32 31 29 27 25 24 23 22 21 20 19 18 16 14 13 12 11 11 10 9 8 8 7 5 2 1 2 2 5 7 8 7 7 6 6 7 7 7
4 2 4 2 2 4 4 1 3 3 2 4 1 2 2 1 1 1 1 3 5 5 5 4 5 6 8 7 6 6 6 7 7 8 6 4 1 5 10 13 15 16 15 16 19 21 24 25 26 27 28 30 32 33 35 35 35 34 34 33 32 31 30 28 26 25 24 23 22 21 20 19 17 15 14 13 12 12 11 10 9 7 5 3 1 1 1 3 6 6 6 6 6 6 7 7 7
4 3 3 2 2 0 1 2 1 0 2 3 3 2 3 3 4 4 6 6 4 3 5 5 6 6 6 6 6 6 7 7 8 8 8 6 6 2 6 11 13 13 13 14 16 19 21 22 23 26 28 29 29 31 34 34 34 35 35 34 33 32 32 30 28 27 26 26 25 23 23 22 19 17 16 15 14 13 12 11 10 8 5 3 1 1 1 2 3 4 4 5 5 6 6 7 8
3 3 3 2 2 3 1 2 2 2 2 2 3 3 2 4 5 6 8 7 4 1 4 5 5 6 5 5 6 6 7 7 6 6 7 7 10 11 3 6 10 11 11 12 14 17 20 21 22 24 26 27 28 29 31 33 35 36 36 35 34 33 33 32 30 30 29 29 27 26 25 24 22 20 18 17 15 14 13 12 10 8 6 4 2 2 1 1 2 2 2 3 3 4 4 5 7
2 2 2 1 2 2 1 1 1 2 3 2 1 2 4 5 4 5 7 6 5 3 1 3 4 5 5 5 5 5 5 6 6 6 7 7 11 16 14 6 2 6 9 11 14 16 19 21 23 24 24 26 29 30 31 32 32 32 33 34 35 35 34 33 32 32 32 31 30 28 27 25 24 22 20 19 17 15 14 12 10 9 7 5 4 2 2 2 3 3 3 3 3 3 3 4 5
2 2 2 2 3 3 2 1 2 1 2 3 3 2 6 4 2 4 5 4 4 3 1 1 3 5 6 5 5 5 5 5 6 5 6 6 8 13 18 17 12 7 1 6 11 14 17 20 22 23 25 28 30 32 33 33 32 32 34 35 35 35 35 35 35 35 34 33 32 31 29 26 25 23 22 20 18 16 14 12 10 9 7 6 5 4 3 4 4 4 4 4 5 5 5 6 7
Wind_Direction
342 344 342 330 317 304 308 68 69 321 86 351 287 229 266 248 246 288 290 282 148 350 322 22 84 99 108 130 157 152 125 151 163 154 196 274 132 148 151 142 154 157 154 153 152 151 151 155 156 151 148 145 145 144 142 140 139 137 134 134 132 130 128 126 127 129 131 130 128 127 127 127 125 125 125 124 124 125 125 125 125 125 126 125 124 130 133 134 133 132 134 134 135 135 137 136 136
345 346 341 323 328 325 213 79 97 319 50 338 287 183 265 311 288 240 239 222 170 156 128 94 88 72 73 108 116 108 63 27 153 170 76 119 122 139 150 146 154 156 152 150 148 149 149 154 158 154 150 148 146 144 142 143 142 139 138 137 134 133 130 127 128 130 131 131 130 129 128 128 128 129 128 127 126 126 127 128 130 132 132 129 125 130 132 133 133 133 136 137 136 137 139 139 137
350 352 358 219 335 54 90 42 106 97 86 227 277 229 282 322 245 237 233 202 158 150 135 92 83 60 54 80 58 97 76 6 84 71 93 129 122 137 151 150 154 155 151 148 145 147 147 151 158 155 152 150 147 144 144 146 145 142 141 139 137 135 132 129 128 130 132 132 131 131 131 131 132 133 133 133 130 130 131 132 133 135 135 130 124 128 131 130 131 133 137 137 136 137 139 139 136
360 358 11 155 94 37 66 45 150 122 126 210 277 274 289 266 264 250 211 168 156 182 136 85 62 355 75 101 75 93 95 25 64 67 123 148 146 150 152 148 151 150 148 146 145 146 145 148 155 156 154 151 148 147 146 147 148 145 144 142 140 138 137 133 130 132 133 134 133 132 135 136 137 138 139 136 134 133 132 132 130 129 131 128 124 126 129 129 130 133 136 137 137 137 139 138 135
1 0 30 111 104 53 100 83 129 114 181 195 93 301 316 306 324 26 139 139 270 319 54 102 87 322 72 95 123 107 105 129 50 72 104 143 154 153 150 149 150 147 146 143 142 144 144 147 151 156 155 151 150 149 148 150 150 149 148 145 144 142 141 138 134 133 135 136 136 135 137 139 141 143 143 139 138 135 132 132 129 125 125 129 128 125 128 130 132 135 136 138 137 137 140 137 133
358 52 56 67 100 147 120 146 167 162 224 178 122 277 322 13 31 31 53 340 317 16 51 73 126 137 82 33 105 95 20 155 109 110 122 144 154 154 149 151 151 145 142 139 140 143 143 146 149 154 156 153 152 152 152 152 153 152 151 149 148 147 146 143 137 134 136 137 138 139 139 140 142 146 147 145 145 139 134 133 131 125 123 132 133 128 129 132 136 136 140 144 140 140 143 139 136
2 116 31 60 45 33 115 184 186 219 244 175 165 240 313 352 94 22 359 346 347 10 30 51 120 114 86 343 101 32 19 147 136 139 145 144 153 155 151 154 150 140 139 138 138 143 143 145 147 151 155 154 153 154 155 154 155 154 153 153 152 152 150 148 142 137 138 138 140 142 143 143 145 149 150 151 150 144 137 135 135 130 124 133 137 133 133 136 138 139 146 151 143 143 148 144 142
25 116 25 94 49 7 105 211 212 211 251 205 227 253 283 313 267 305 349 359 357 338 19 17 19 91 75 5 86 359 29 86 133 141 146 145 152 152 151 153 145 136 136 137 139 144 143 143 146 149 153 156 156 155 156 156 157 155 155 155 156 156 153 153 147 140 140 140 142 145 147 147 147 151 154 154 153 146 140 140 140 134 125 131 138 138 139 142 145 148 152 153 146 147 152 149 145
39 51 105 98 138 1 25 286 266 227 264 254 240 254 257 271 263 222 213 311 6 32 96 301 345 88 145 33 54 318 30 95 131 137 145 148 151 149 150 151 146 136 133 138 144 145 140 142 145 147 152 156 158 157 158 159 161 161 160 159 160 161 156 156 153 146 144 143 144 146 149 150 150 153 155 154 152 147 143 143 141 135 128 131 139 140 142 147 153 156 155 152 151 154 156 155 152
40 28 136 81 114 276 312 283 270 251 257 258 235 231 240 244 229 213 197 221 168 137 169 20 21 92 128 77 29 323 74 131 133 132 142 147 148 147 148 150 150 140 136 142 145 143 138 141 144 146 151 155 159 162 162 163 166 166 165 165 164 164 161 158 156 151 149 148 147 149 153 154 154 155 154 152 151 149 145 145 142 138 134 135 143 144 144 150 155 157 157 155 156 158 161 163 163
41 345 97 77 74 214 261 255 281 270 267 290 284 240 228 227 205 225 204 198 157 141 199 32 68 116 95 81 305 128 141 141 135 131 138 144 146 148 146 148 150 143 141 143 143 143 137 139 144 147 153 154 158 164 166 165 169 170 168 170 168 166 164 160 159 157 154 154 153 154 157 157 156 156 155 154 153 153 149 147 144 143 142 140 145 149 148 152 158 158 159 160 160 162 165 168 169
87 329 63 96 151 201 215 228 281 284 292 301 287 265 206 184 177 216 200 186 166 146 191 135 144 142 88 64 270 151 143 138 139 134 140 145 146 149 147 146 147 145 145 143 143 142 138 143 147 148 152 153 156 162 169 167 169 171 169 173 171 167 166 163 162 161 159 158 158 158 161 160 158 160 160 159 157 156 154 150 148 148 149 147 148 152 153 157 163 164 163 164 167 170 171 172 177
123 156 88 136 191 172 173 201 274 303 309 269 245 271 140 152 190 210 192 177 167 158 202 178 156 125 93 175 166 154 148 146 146 142 150 150 148 149 147 147 145 144 144 143 144 142 144 150 150 146 144 147 152 156 167 168 168 170 168 174 173 166 165 165 164 163 162 161 160 161 164 164 164 165 165 164 163 160 157 154 154 155 155 155 153 155 159 164 169 171 169 169 173 177 180 181 183
141 153 115 170 217 129 180 229 287 8 288 260 244 280 305 186 213 204 164 156 175 173 173 149 147 126 92 166 163 189 160 157 155 151 156 152 152 151 147 148 144 143 144 145 147 147 148 150 150 146 142 142 146 149 161 167 169 171 167 172 174 168 167 168 166 166 165 164 163 163 165 169 170 171 170 169 167 166 163 160 159 159 158 159 160 160 163 170 176 175 173 173 175 179 185 185 182
154 127 95 118 1 352 225 216 206 148 259 255 261 301 301 256 201 170 166 159 185 191 119 120 145 146 184 178 187 193 157 156 159 155 155 151 153 153 150 148 145 146 146 147 149 150 152 153 151 147 145 140 140 143 151 160 164 170 167 170 175 170 170 169 167 169 166 165 167 165 167 171 176 178 176 176 174 172 170 167 165 163 161 160 165 166 166 172 179 181 175 173 173 173 179 182 178
124 105 72 77 283 293 233 216 201 185 258 244 263 328 331 300 17 154 204 148 138 140 99 127 187 256 177 194 179 156 151 155 156 154 150 145 148 148 149 148 149 152 149 151 151 153 155 156 156 149 145 138 136 138 142 149 155 164 167 172 176 172 173 171 168 171 169 169 171 168 169 172 180 183 179 180 180 178 178 175 173 169 167 166 168 171 169 173 180 187 182 174 170 165 172 179 177
76 81 71 45 204 204 221 213 190 194 266 268 317 347 13 323 357 109 40 82 119 115 63 78 315 13 140 154 137 140 147 152 150 147 141 137 141 142 144 147 152 155 153 152 153 155 156 158 157 151 145 139 137 135 136 142 148 158 164 172 178 175 174 173 169 173 174 173 174 171 173 175 181 186 184 186 185 183 185 184 182 180 175 172 174 175 175 177 181 189 189 178 172 169 172 178 178
65 85 104 196 200 193 200 196 205 203 281 287 320 333 151 98 10 85 63 71 96 85 48 38 36 43 83 105 124 135 143 144 143 140 134 132 137 138 141 146 150 155 157 154 155 157 156 157 155 153 148 144 142 138 138 143 152 158 163 174 180 177 176 177 174 176 179 177 174 172 174 179 185 190 188 190 190 189 189 188 189 189 185 182 182 182 183 188 186 188 191 183 178 181 180 178 179
107 116 122 221 205 213 208 203 232 220 277 291 309 313 156 133 138 68 91 112 111 95 50 43 69 67 86 105 121 131 138 138 142 142 137 138 139 140 141 146 149 155 160 158 158 158 158 158 156 156 152 150 149 144 146 153 160 161 168 181 181 180 182 184 181 179 181 179 177 174 177 183 188 195 194 193 196 194 194 191 193 195 195 194 190 189 189 196 197 192 194 190 186 190 190 178 177
166 127 176 245 214 236 243 225 244 239 271 295 302 299 130 127 52 55 117 118 103 126 138 107 120 135 122 119 124 130 136 139 147 148 144 143 144 147 148 153 153 157 165 162 161 159 160 162 160 160 157 158 156 153 158 161 166 166 173 185 186 188 189 190 189 186 183 181 179 177 183 189 193 202 201 198 201 202 204 198 196 199 202 202 198 197 193 195 203 203 200 196 191 193 195 186 175
164 141 199 238 195 245 260 228 249 261 256 267 290 311 118 125 65 117 137 120 64 212 206 181 159 159 144 139 137 136 141 143 149 151 145 143 148 155 158 161 161 166 169 164 162 160 162 166 165 166 165 164 163 166 169 168 171 171 175 182 188 191 191 193 195 194 188 184 182 182 190 199 200 204 206 205 205 208 211 206 202 203 205 206 204 203 199 195 199 204 206 200 196 196 196 194 180
163 224 210 225 178 246 270 221 239 262 260 281 301 326 148 114 96 147 157 146 197 238 224 197 162 158 154 151 148 144 147 147 151 153 147 147 153 158 162 164 166 170 170 166 164 162 165 169 171 172 172 172 174 180 175 171 177 178 180 183 188 190 187 191 194 195 193 189 188 189 196 205 206 205 209 209 209 210 211 208 207 206 205 209 209 208 205 202 201 201 206 204 200 202 201 202 190
200 273 253 242 207 231 272 213 222 274 328 303 288 275 137 91 123 188 200 189 262 290 149 159 164 158 152 148 150 152 155 156 157 159 153 152 156 158 160 162 164 166 167 167 165 164 169 170 172 172 174 177 183 190 183 181 184 185 187 187 191 190 184 184 186 191 195 194 196 196 200 210 210 209 212 212 213 211 211 210 207 208 208 212 214 212 211 208 205 202 206 208 206 209 209 207 192
179 263 280 267 218 222 261 253 248 277 282 271 279 309 202 137 153 189 239 271 299 322 112 123 133 137 140 143 151 152 153 154 155 161 157 154 155 155 157 159 159 162 163 165 165 167 168 165 167 167 169 174 179 193 197 196 191 189 192 192 194 192 186 184 183 188 196 199 201 202 206 215 215 216 219 218 218 216 216 213 207 209 211 216 216 212 215 213 208 205 206 209 210 214 211 201 193
189 226 269 281 231 234 262 272 267 245 253 266 316 309 236 182 160 158 229 297 348 94 105 109 115 122 136 145 149 147 147 148 147 152 152 150 151 149 155 159 159 162 162 163 165 166 165 163 164 165 166 166 171 185 199 204 199 197 200 199 198 195 190 190 188 192 199 203 205 207 212 218 220 224 226 223 223 224 226 219 212 212 211 218 220 212 215 212 206 206 207 209 211 214 207 197 198
215 213 261 275 271 270 273 278 260 195 235 237 206 293 285 238 147 164 243 316 108 112 107 117 127 137 148 150 152 151 149 148 145 148 147 146 148 148 153 160 163 164 162 162 165 166 166 165 165 169 168 167 173 177 189 202 203 207 210 207 204 199 194 197 201 204 204 204 207 212 217 221 224 228 229 227 227 228 230 224 218 217 211 216 223 216 215 213 204 204 206 207 208 210 206 205 210
204 214 263 261 274 282 261 274 270 170 229 191 179 248 294 338 14 203 267 155 134 112 113 131 139 153 159 152 152 146 148 156 154 149 143 147 154 153 153 159 163 164 164 164 167 168 168 169 170 173 173 174 177 177 184 198 203 210 217 217 211 205 203 204 209 214 210 207 213 219 223 226 227 232 234 235 234 235 236 228 219 216 209 210 224 222 214 215 209 203 202 202 205 207 209 219 231
221 251 295 293 298 291 260 292 302 191 222 171 158 167 16 5 20 237 254 165 137 124 133 146 150 161 158 151 149 145 159 167 162 154 154 164 165 159 156 159 160 162 167 168 169 170 170 171 172 174 175 176 178 180 183 188 196 206 219 229 222 213 215 215 213 215 212 209 215 221 226 228 230 236 240 242 242 242 240 232 227 230 216 205 220 227 218 218 215 211 211 210 214 220 230 241 253
295 32 315 308 346 356 337 331 310 204 152 157 148 110 339 282 232 272 250 143 125 125 140 150 155 160 154 159 159 158 170 169 170 170 171 173 169 163 159 160 160 161 166 168 170 171 171 172 171 173 173 174 177 178 178 177 184 197 213 229 230 223 225 224 217 216 215 210 213 219 224 228 231 236 240 246 247 246 247 244 245 253 236 211 216 228 227 222 218 219 223 222 226 233 245 255 266
319 29 58 317 1 4 339 347 338 41 132 29 134 233 289 262 262 277 203 137 122 123 141 153 154 158 163 172 168 173 179 173 182 186 180 175 172 167 161 161 163 163 164 166 169 170 171 172 171 171 171 171 170 167 166 162 165 175 183 190 202 214 217 220 222 226 228 223 225 227 230 233 237 243 251 254 252 251 254 252 242 245 244 223 215 223 232 232 224 221 229 234 235 239 249 261 270
329 348 52 4 32 308 314 324 347 348 178 43 72 231 265 272 278 248 180 148 140 141 155 157 157 170 176 183 179 187 196 192 195 191 186 181 176 170 164 163 164 165 165 165 168 169 170 171 172 172 171 169 163 161 160 156 156 158 157 156 162 162 176 202 216 227 234 235 243 245 245 249 254 271 292 282 268 265 263 253 239 234 238 232 221 219 223 228 223 222 235 242 243 246 255 265 272
17 21 327 353 53 303 313 337 9 343 306 31 76 243 274 277 273 227 178 158 150 152 165 165 170 179 181 188 188 193 204 205 205 199 194 188 180 174 170 168 168 169 168 168 169 170 170 172 175 174 170 166 161 160 161 159 158 156 157 157 151 132 123 146 175 196 189 193 237 260 252 253 260 279 304 309 305 288 263 252 246 237 228 227 228 223 215 213 213 219 233 239 248 255 258 265 271
355 57 22 323 32 354 326 353 359 2 322 354 83 214 274 313 305 267 199 164 155 155 169 173 174 182 187 191 188 189 196 204 213 209 201 192 185 180 176 174 174 174 173 173 173 173 173 174 177 174 168 166 163 163 164 164 162 161 166 164 155 135 122 128 138 148 131 116 84 65 47 269 270 276 284 297 322 293 269 264 258 248 222 220 233 227 216 216 215 218 229 236 248 257 260 262 263
324 24 65 289 342 30 335 331 343 20 15 299 4 232 250 306 323 294 275 164 154 164 179 182 181 188 192 190 191 190 192 201 210 208 200 193 189 185 181 179 178 175 175 176 176 176 176 174 174 172 170 169 167 166 168 170 170 171 169 164 159 143 138 143 140 139 121 101 73 63 62 61 25 305 311 288 308 279 288 334 345 255 234 241 269 261 222 224 222 223 232 237 247 257 260 260 259
223 261 72 337 315 310 299 277 307 22 22 274 320 278 265 306 328 308 300 259 176 188 185 176 179 180 182 188 201 203 204 211 212 203 196 192 191 188 186 183 179 177 176 176 176 177 175 170 169 168 171 170 168 170 172 174 175 174 166 161 165 154 149 153 152 151 133 114 63 61 68 71 86 104 76 57 31 295 321 19 15 277 250 254 303 296 253 236 229 232 239 239 243 249 251 251 253
163 183 139 131 109 270 266 256 273 358 52 309 284 256 274 307 308 273 267 228 199 217 175 156 165 162 177 193 204 211 215 220 220 201 194 193 193 191 189 186 182 179 178 177 177 178 175 169 167 166 168 169 168 171 170 169 168 167 165 163 161 151 149 156 161 163 147 148 125 62 66 60 46 306 33 24 51 48 42 51 44 310 277 24 10 321 291 292 251 237 239 240 241 241 243 244 248
125 118 122 156 162 280 278 268 290 315 107 316 241 235 269 273 250 252 250 203 217 241 210 191 186 173 188 199 210 217 222 230 220 198 197 198 197 193 192 189 183 180 179 180 180 179 177 172 169 165 166 170 171 170 166 165 166 164 164 164 158 149 151 161 164 166 162 164 155 86 47 40 24 329 324 338 61 67 57 62 63 59 69 77 75 78 64 20 298 216 225 237 238 238 247 248 250
108 131 134 174 188 244 265 252 308 341 110 271 312 321 284 269 258 271 252 169 213 223 209 207 203 195 199 203 212 217 222 231 203 194 199 202 203 198 195 192 187 184 182 183 183 181 178 175 172 167 167 172 174 173 169 171 173 170 169 167 162 153 154 165 169 170 176 173 154 90 46 37 30 37 37 13 39 62 63 71 73 70 75 78 80 82 83 78 68 88 131 124 188 215 247 258 261
89 128 136 289 254 276 290 295 333 359 50 277 337 12 291 278 280 258 199 191 232 228 210 210 201 192 197 200 204 208 214 220 205 198 200 203 205 200 198 197 193 191 186 185 185 181 178 178 176 171 170 173 175 176 176 177 176 176 177 170 165 158 157 166 173 173 174 168 151 105 58 33 18 33 52 45 45 61 69 79 82 76 74 75 76 78 81 85 73 62 72 81 90 95 91 79 23
89 120 140 267 272 316 294 302 327 347 47 264 31 18 298 301 321 289 199 200 259 271 235 233 217 200 202 199 196 199 204 208 207 205 197 197 202 202 202 201 198 195 190 186 184 181 179 182 181 176 173 174 176 177 179 181 177 177 177 168 166 163 159 162 160 157 157 155 150 138 82 341 343 37 70 66 62 68 78 87 86 78 74 71 69 73 74 75 69 61 66 77 84 91 98 93 75
296 161 165 208 229 202 218 278 327 349 12 41 57 12 314 328 339 303 298 164 291 328 293 264 253 229 222 214 206 206 207 206 204 202 190 188 199 203 202 201 200 198 194 189 185 182 183 185 185 181 177 176 177 176 179 182 179 177 173 168 168 162 156 160 162 163 165 161 154 147 4 348 25 129 109 93 84 81 86 90 87 79 73 66 61 66 70 68 63 58 58 65 73 87 103 97 82
304 240 199 189 176 188 212 347 20 29 351 347 35 359 292 320 317 269 305 350 324 328 292 256 259 252 229 223 217 213 215 215 210 206 196 193 197 197 198 201 202 201 198 192 187 185 186 187 186 184 180 178 179 179 183 188 188 185 177 173 174 170 167 173 179 177 173 172 164 148 95 65 94 130 132 116 101 92 87 84 86 85 77 67 64 69 72 64 59 58 55 57 63 73 90 88 79
297 244 199 166 131 131 135 99 84 85 273 305 47 150 254 316 315 271 313 335 308 301 282 261 261 248 227 229 227 216 215 217 217 214 205 196 191 187 195 202 204 203 199 193 188 188 189 187 186 186 184 181 182 184 189 194 197 196 189 184 183 182 182 183 182 176 171 174 172 157 129 97 98 116 130 131 123 108 87 70 72 81 80 71 63 65 67 62 57 59 56 56 60 59 68 76 72
232 231 146 131 127 144 157 141 135 189 244 320 16 111 200 297 279 279 333 338 317 319 305 299 301 233 231 236 235 225 218 214 211 212 206 196 191 191 199 203 203 202 198 193 189 190 191 188 186 187 185 184 185 188 195 200 202 202 198 194 192 191 191 183 174 171 174 179 180 172 154 127 110 105 105 111 117 113 96 80 76 82 88 81 67 62 63 62 58 56 54 55 57 54 55 67 69
239 192 121 126 137 147 145 125 122 23 46 311 322 44 163 273 275 306 359 354 312 308 300 310 335 313 277 254 240 230 224 218 211 211 206 196 195 200 203 203 200 199 196 194 191 191 192 189 188 189 187 187 189 192 198 203 207 207 202 200 199 197 197 187 175 173 177 182 186 183 173 158 139 121 106 99 101 99 92 90 86 81 81 78 70 64 59 54 49 44 44 44 47 54 54 56 63
223 130 93 72 74 80 88 103 106 47 59 245 271 274 189 268 287 306 340 349 286 285 292 302 321 324 314 294 269 241 228 221 214 213 208 202 202 203 202 198 195 196 197 195 192 192 193 191 190 191 190 191 192 196 200 204 208 210 206 204 205 202 199 194 185 183 185 188 192 193 188 175 160 147 132 115 107 103 96 91 85 74 70 66 62 57 46 36 32 32 35 37 41 49 50 48 56
137 95 64 51 43 40 49 61 85 71 339 253 255 231 178 269 284 263 250 259 274 282 304 317 323 325 311 297 291 265 233 221 215 215 211 204 203 199 193 189 189 192 194 195 195 195 196 195 193 193 194 194 196 199 202 205 207 211 211 210 210 208 202 198 195 193 194 197 197 195 195 187 173 163 155 145 135 125 113 99 80 66 56 49 48 46 37 31 33 35 37 38 41 45 47 46 51
101 78 65 70 3 14 32 357 47 95 260 265 268 223 135 208 267 272 283 301 297 266 266 301 315 315 304 294 302 296 247 221 216 213 196 178 182 184 183 182 183 186 190 194 197 197 198 198 196 196 197 198 200 202 204 207 208 212 215 215 215 215 210 206 205 203 203 204 200 197 198 193 184 176 169 164 160 152 144 127 86 61 44 35 35 34 34 36 41 41 39 39 41 44 44 42 42
75 78 74 80 342 12 14 304 346 190 244 257 267 241 142 222 249 270 305 314 308 273 236 273 287 300 310 312 327 341 326 231 200 184 173 167 169 177 180 181 181 185 191 195 197 198 199 200 199 198 199 200 202 204 206 209 211 213 216 218 219 219 218 217 216 214 213 211 206 203 203 201 196 190 184 178 173 170 170 160 129 71 45 34 31 27 29 38 41 40 38 36 37 39 38 38 38
119 137 123 121 113 69 294 270 266 256 263 275 270 263 276 275 264 257 285 302 307 336 358 294 277 286 308 329 11 32 19 4 165 165 175 179 172 174 185 189 190 192 195 195 197 198 199 201 201 200 200 201 204 207 209 211 213 214 217 220 221 222 223 224 225 225 223 220 215 212 212 211 209 207 199 188 181 182 189 200 231 230 80 49 35 26 29 37 37 37 35 31 32 33 30 30 33
173 162 133 141 158 154 232 229 198 242 266 319 305 249 188 205 257 264 274 301 315 348 335 296 286 290 302 345 27 42 28 8 22 163 182 184 175 176 186 194 198 201 202 201 200 200 200 202 203 202 202 203 205 208 210 213 214 214 215 219 222 225 228 229 230 232 230 228 225 223 222 220 218 218 210 196 191 194 202 216 233 236 223 64 34 31 39 43 40 39 36 31 30 27 22 21 23
248 146 113 149 183 152 179 194 168 180 183 291 262 230 218 203 266 295 330 340 334 340 316 301 322 330 1 25 24 31 28 14 22 47 145 203 185 183 188 193 198 202 206 207 207 205 205 206 207 206 205 205 207 209 211 214 216 215 215 217 222 227 230 230 231 234 234 234 233 231 230 228 224 222 214 206 203 205 211 218 222 225 228 248 7 24 41 46 43 43 41 36 31 25 20 16 16
188 136 157 214 170 123 117 204 51 77 154 256 238 232 283 341 337 337 10 341 319 327 318 322 354 11 45 43 17 21 24 15 24 39 40 272 186 187 191 193 197 201 204 207 208 208 210 212 213 212 211 210 211 212 213 215 217 217 217 218 221 227 229 230 232 235 237 237 237 237 236 234 230 224 219 217 215 213 216 217 214 216 220 235 321 356 29 37 37 37 36 33 28 21 14 9 7
124 172 210 205 102 92 109 161 7 44 199 269 296 201 237 123 206 278 9 287 290 313 320 344 14 27 47 37 13 22 23 15 20 31 35 25 70 186 194 197 202 206 207 208 209 211 213 215 216 215 215 215 215 215 216 217 219 220 220 220 222 226 229 231 233 237 239 239 239 238 237 236 233 228 224 221 219 218 218 215 213 215 215 226 287 332 50 32 27 27 23 18 12 4 358 356 356
117 171 188 116 120 191 59 128 145 168 218 282 311 273 229 200 214 200 184 211 242 324 342 12 28 29 38 25 13 21 26 27 25 27 30 24 20 23 203 203 206 208 209 211 211 213 217 219 220 221 221 220 219 220 220 220 221 223 224 225 225 226 229 231 233 236 239 240 240 239 237 237 235 231 227 223 221 220 218 216 217 217 217 233 263 172 100 32 19 16 12 8 359 351 350 351 349
24 49 29 33 133 161 164 136 162 187 205 254 304 314 263 227 226 190 179 201 214 335 10 24 21 15 22 16 16 25 31 34 30 29 34 33 29 26 20 215 213 209 208 211 211 214 217 220 223 224 225 225 225 225 224 224 224 225 226 228 228 229 229 231 233 235 238 240 240 239 238 238 236 233 230 226 223 221 218 219 220 221 229 248 249 197 174 348 345 344 353 356 350 348 350 347 342
10 18 353 353 79 102 102 85 113 139 163 190 211 286 267 248 232 188 175 192 209 196 112 41 4 1 4 2 13 28 36 36 30 32 37 35 37 40 44 48 231 216 212 213 211 214 219 221 223 224 224 226 227 228 229 228 227 228 229 230 231 231 231 232 232 234 237 240 240 239 239 239 237 233 230 227 225 222 221 221 222 228 242 255 248 229 257 299 305 311 320 328 331 334 335 330 328
149 178 202 170 133 101 79 329 320 74 137 176 163 233 268 260 230 209 187 187 216 222 182 59 8 1 356 349 353 9 28 31 22 26 36 36 41 49 54 54 51 50 101 219 216 217 220 221 224 225 225 226 227 228 230 229 229 231 232 234 235 235 234 234 233 234 237 239 240 239 239 238 237 233 230 227 225 223 221 222 225 235 250 258 253 255 278 295 300 305 313 323 326 327 329 327 327